Denver, CO

6:04 AM MDT on September 26, 2017 (GMT -0600)
Denver International

Weather History for KDEN - November, 2013

Change the Weather History Date:

Sunday, November 24, 2013

  Actual Average Record
Temperature  
Mean Temperature 29 °F 34 °F  
Max Temperature 36 °F 48 °F 74 °F (1990)
Min Temperature 22 °F 21 °F -8 °F (1993)
Degree Days  
Heating Degree Days 36 31  
Month to date heating degree days 575 610  
Since 1 July heating degree days 1183 1191  
Cooling Degree Days 0 0  
Month to date cooling degree days 0 0  
Year to date cooling degree days 999 769  
Moisture  
Dew Point 21 °F    
Average Humidity 77    
Maximum Humidity 92    
Minimum Humidity 61    
Precipitation  
Precipitation 0.00 in 0.01 in 0.42 in (1946)
Month to date precipitation 0.26 0.51  
Year to date precipitation 17.34 13.85  
Snow  
Snow 0.00 in - - ()
Month to date snowfall 2  
Since 1 July snowfall 3.4  
Since 1 September snowfall 3.4  
Snow Depth 0.00 in    
Sea Level Pressure  
Sea Level Pressure 30.11 in    
Wind  
Wind Speed 7 mph (WNW)    
Max Wind Speed 21 mph    
Max Gust Speed 25 mph    
Visibility 7 miles    
Events Fog    
T = Trace of Precipitation, MM = Missing Value Source: NWS Daily Summary

Daily Weather History Graph

Daily Weather History Graph

Search for Another Location

Airport or City:

Trip Planner

Search our weather history database for the weather conditions in past years. The results will help you decide how hot, cold, wet, or windy it might be!

Date:

Astronomy

Nov. 24, 2013 Rise Set
Actual Time 6:53 AM MST 4:36 PM MST
Civil Twilight 6:24 AM MST 5:06 PM MST
Nautical Twilight 5:51 AM MST 5:39 PM MST
Astronomical Twilight 5:18 AM MST 6:11 PM MST
Moon 11:04 PM MST (11/24) 11:43 AM MST (11/24)
Length of Visible Light 10h 41m
Length of Day
9h 42m
Waning Gibbous, 60% of the Moon is Illuminated
Nov 24
Waning Gibbous
Nov 25
Last Quarter
Dec 2
New
Dec 9
First Quarter
Dec 17
Full

Hourly Weather History & Observations

Time (MST) Temp. Windchill Dew Point Humidity Pressure Visibility Wind Dir Wind Speed Gust Speed Precip Events Conditions
12:53 AM 26.1 °F 16.8 °F 17.1 °F 69% 30.30 in 9.0 mi South 9.2 mph - N/A   Mostly Cloudy
1:53 AM 25.0 °F 14.8 °F 17.1 °F 72% 30.27 in 9.0 mi South 10.4 mph - N/A   Mostly Cloudy
2:53 AM 23.0 °F 14.7 °F 17.1 °F 78% 30.25 in 9.0 mi SSE 6.9 mph - N/A   Scattered Clouds
3:53 AM 21.9 °F 11.0 °F 16.0 °F 78% 30.20 in 10.0 mi South 10.4 mph - N/A   Scattered Clouds
4:53 AM 23.0 °F 15.8 °F 17.1 °F 78% 30.19 in 10.0 mi West 5.8 mph - N/A   Scattered Clouds
5:39 AM 21.2 °F 12.6 °F 19.4 °F 93% 30.11 in 5.0 mi NNW 6.9 mph - N/A Fog Scattered Clouds
5:50 AM 21.2 °F 12.6 °F 19.4 °F 93% 30.11 in 1.0 mi NNW 6.9 mph - N/A Fog Mostly Cloudy
5:53 AM 21.9 °F 11.7 °F 19.0 °F 89% 30.19 in 1.0 mi NNW 9.2 mph - N/A Fog Mostly Cloudy
5:56 AM 21.2 °F 10.1 °F 19.4 °F 93% 30.10 in 4.0 mi NW 10.4 mph - N/A Fog Scattered Clouds
6:53 AM 21.9 °F 17.2 °F 19.0 °F 89% 30.19 in 6.0 mi NNW 3.5 mph - N/A   Mostly Cloudy
7:53 AM 21.9 °F 15.7 °F 19.0 °F 89% 30.19 in 4.0 mi NNW 4.6 mph - N/A   Mostly Cloudy
8:53 AM 24.1 °F 16.0 °F 19.9 °F 84% 30.17 in 4.0 mi SW 6.9 mph - N/A   Mostly Cloudy
9:53 AM 24.1 °F 17.0 °F 19.9 °F 84% 30.17 in 4.0 mi SW 5.8 mph - N/A   Mostly Cloudy
10:53 AM 26.1 °F 17.6 °F 21.0 °F 81% 30.13 in 5.0 mi WSW 8.1 mph - N/A   Haze
11:53 AM 30.0 °F 26.5 °F 21.0 °F 69% 30.06 in 8.0 mi WSW 3.5 mph - N/A   Mostly Cloudy
12:53 PM 32.0 °F - 21.0 °F 64% 30.03 in 8.0 mi Calm Calm - N/A   Mostly Cloudy
1:53 PM 33.1 °F 28.7 °F 21.9 °F 64% 30.00 in 7.0 mi NNW 4.6 mph - N/A   Mostly Cloudy
2:53 PM 32.0 °F 25.6 °F 23.0 °F 69% 30.01 in 7.0 mi NNE 6.9 mph - N/A   Mostly Cloudy
3:53 PM 32.0 °F - 23.0 °F 69% 30.01 in 7.0 mi Calm Calm - N/A   Mostly Cloudy
4:53 PM 30.0 °F - 23.0 °F 75% 30.01 in 7.0 mi Calm Calm - N/A   Mostly Cloudy
5:53 PM 30.9 °F 24.3 °F 23.0 °F 72% 30.01 in 8.0 mi WNW 6.9 mph - N/A   Mostly Cloudy
6:53 PM 30.0 °F 24.1 °F 24.1 °F 79% 30.03 in 7.0 mi NW 5.8 mph - N/A   Mostly Cloudy
7:53 PM 30.0 °F 23.2 °F 24.1 °F 79% 30.03 in 7.0 mi West 6.9 mph - N/A   Mostly Cloudy
8:53 PM 28.9 °F 20.4 °F 23.0 °F 78% 30.03 in 7.0 mi West 9.2 mph - N/A   Scattered Clouds
9:53 PM 30.0 °F 24.1 °F 24.1 °F 79% 30.04 in 7.0 mi WSW 5.8 mph - N/A   Mostly Cloudy
10:53 PM 30.9 °F 24.3 °F 24.1 °F 76% 30.04 in 8.0 mi WNW 6.9 mph - N/A   Overcast
11:53 PM 36.0 °F 25.6 °F 19.0 °F 50% 30.01 in 10.0 mi NNW 18.4 mph 25.3 mph N/A   Overcast